Quincy, FL

1:24 AM EST on February 09, 2016 (GMT -0500)
Quincy Muni, Quincy, FL

Weather History for K2J9 - February, 2014

Change the Weather History Date:

Sunday, February 16, 2014

  Actual Average (KTLH) Record (KTLH)
Temperature  
Mean Temperature 50 °F 55 °F  
Max Temperature 68 °F 68 °F 85 °F (1989)
Min Temperature 32 °F 42 °F 24 °F (1991)
Degree Days  
Heating Degree Days 15    
Month to date heating degree days  
Since 1 July heating degree days  
Cooling Degree Days 0    
Month to date cooling degree days  
Year to date cooling degree days  
Moisture  
Dew Point 35 °F    
Average Humidity 66    
Maximum Humidity 100    
Minimum Humidity 26    
Precipitation  
Precipitation 0.00 in 0.18 in 2.78 in (1942)
Month to date precipitation 2.56  
Year to date precipitation 6.90  
Sea Level Pressure  
Sea Level Pressure 30.18 in    
Wind  
Wind Speed 1 mph (WSW)    
Max Wind Speed 8 mph    
Max Gust Speed -    
Visibility 10 miles    
Events      
T = Trace of Precipitation, MM = Missing Value Source: NWS Daily Summary

Daily Weather History Graph

Daily Weather History Graph

Search for Another Location

Airport or City:

Trip Planner

Search our weather history database for the weather conditions in past years. The results will help you decide how hot, cold, wet, or windy it might be!

Date:

Astronomy

Feb. 16, 2014 Rise Set
Actual Time 7:17 AM EST 6:27 PM EST
Civil Twilight 6:53 AM EST 6:51 PM EST
Nautical Twilight 6:25 AM EST 7:19 PM EST
Astronomical Twilight 5:57 AM EST 7:47 PM EST
Moon 8:11 PM EST (2/16) 7:56 AM EST (2/16)
Length of Visible Light 11h 58m
Length of Day
11h 09m
Full, 97% of the Moon is Illuminated
Feb 16
Full
Feb 22
Last Quarter
Mar 1
New
Mar 8
First Quarter
Mar 16
Full

Hourly Weather History & Observations

Time (EST) Temp. Windchill Dew Point Humidity Pressure Visibility Wind Dir Wind Speed Gust Speed Precip Events Conditions
12:15 AM 35.6 °F - 32.0 °F 87% 30.16 in 9.0 mi Calm Calm - N/A   Clear
12:35 AM 35.6 °F - 32.0 °F 87% 30.15 in 10.0 mi Calm Calm - N/A   Clear
12:55 AM 33.8 °F - 32.0 °F 93% 30.16 in 10.0 mi Calm Calm - N/A   Clear
1:15 AM 33.8 °F - 32.0 °F 93% 30.16 in 10.0 mi Calm Calm - N/A   Clear
1:35 AM 32.0 °F - 32.0 °F 100% 30.15 in 10.0 mi Calm Calm - N/A   Clear
1:55 AM 32.0 °F - 32.0 °F 100% 30.15 in 10.0 mi Calm Calm - N/A   Clear
2:15 AM 32.0 °F - 32.0 °F 100% 30.15 in 10.0 mi Calm Calm - N/A   Clear
2:35 AM 32.0 °F - 32.0 °F 100% 30.16 in 10.0 mi Calm Calm - N/A   Clear
2:55 AM 32.0 °F - 32.0 °F 100% 30.15 in 9.0 mi Calm Calm - N/A   Clear
3:15 AM 32.0 °F - 32.0 °F 100% 30.15 in 8.0 mi Calm Calm - N/A   Clear
3:35 AM 32.0 °F - 32.0 °F 100% 30.15 in 9.0 mi Calm Calm - N/A   Clear
3:55 AM 32.0 °F - 32.0 °F 100% 30.14 in 9.0 mi Calm Calm - N/A   Clear
4:15 AM 32.0 °F - 30.2 °F 93% 30.14 in 9.0 mi Calm Calm - N/A   Clear
4:35 AM 32.0 °F - 30.2 °F 93% 30.14 in 9.0 mi Calm Calm - N/A   Clear
4:55 AM 32.0 °F - 30.2 °F 93% 30.13 in 9.0 mi Calm Calm - N/A   Clear
5:15 AM 32.0 °F - 30.2 °F 93% 30.15 in 8.0 mi Calm Calm - N/A   Clear
5:35 AM 32.0 °F - 30.2 °F 93% 30.16 in 9.0 mi Calm Calm - N/A   Clear
5:55 AM 32.0 °F - 30.2 °F 93% 30.18 in 8.0 mi Calm Calm - N/A   Clear
6:15 AM 32.0 °F - 30.2 °F 93% 30.19 in 9.0 mi Calm Calm - N/A   Clear
6:35 AM 32.0 °F - 30.2 °F 93% 30.20 in 9.0 mi Calm Calm - N/A   Clear
6:55 AM 32.0 °F - 28.4 °F 87% 30.20 in 10.0 mi Calm Calm - N/A   Clear
7:15 AM 32.0 °F - 28.4 °F 87% 30.21 in 9.0 mi Calm Calm - N/A   Mostly Cloudy
7:35 AM 32.0 °F - 30.2 °F 93% 30.22 in 9.0 mi Calm Calm - N/A   Mostly Cloudy
7:55 AM 32.0 °F - 30.2 °F 93% 30.22 in 9.0 mi Calm Calm - N/A   Clear
8:15 AM 32.0 °F - 32.0 °F 100% 30.23 in 9.0 mi Calm Calm - N/A   Clear
8:35 AM 35.6 °F - 32.0 °F 87% 30.23 in 10.0 mi Calm Calm - N/A   Clear
8:55 AM 39.2 °F - 33.8 °F 81% 30.23 in 10.0 mi Calm Calm - N/A   Clear
9:15 AM 44.6 °F - 35.6 °F 71% 30.24 in 10.0 mi Calm Calm - N/A   Clear
9:35 AM 48.2 °F - 35.6 °F 62% 30.24 in 10.0 mi Calm Calm - N/A   Clear
9:55 AM 50.0 °F - 35.6 °F 58% 30.24 in 10.0 mi Calm Calm - N/A   Clear
10:15 AM 53.6 °F - 35.6 °F 51% 30.24 in 10.0 mi Calm Calm - N/A   Clear
10:35 AM 55.4 °F - 37.4 °F 51% 30.24 in 10.0 mi Calm Calm - N/A   Clear
10:55 AM 57.2 °F - 37.4 °F 48% 30.24 in 10.0 mi West 4.6 mph - N/A   Clear
11:15 AM 59.0 °F - 37.4 °F 45% 30.24 in 10.0 mi Calm Calm - N/A   Clear
11:35 AM 62.6 °F - 35.6 °F 37% 30.23 in 10.0 mi Calm Calm - N/A   Clear
11:55 AM 62.6 °F - 33.8 °F 34% 30.23 in 10.0 mi West 8.1 mph - N/A   Clear
12:15 PM 64.4 °F - 32.0 °F 30% 30.22 in 10.0 mi NW 6.9 mph - N/A   Clear
12:35 PM 64.4 °F - 32.0 °F 30% 30.21 in 10.0 mi West 8.1 mph - N/A   Clear
12:55 PM 64.4 °F - 32.0 °F 30% 30.20 in 10.0 mi NNW 6.9 mph - N/A   Clear
1:15 PM 66.2 °F - 32.0 °F 28% 30.18 in 10.0 mi Calm Calm - N/A   Clear
1:35 PM 66.2 °F - 30.2 °F 26% 30.17 in 10.0 mi SW 6.9 mph - N/A   Clear
1:55 PM 66.2 °F - 30.2 °F 26% 30.16 in 10.0 mi Calm Calm - N/A   Clear
2:15 PM 68.0 °F - 32.0 °F 26% 30.15 in 10.0 mi WNW 5.8 mph - N/A   Clear
2:35 PM 68.0 °F - 32.0 °F 26% 30.15 in 10.0 mi Calm Calm - N/A   Clear
2:55 PM 68.0 °F - 32.0 °F 26% 30.15 in 10.0 mi Calm Calm - N/A   Clear
3:15 PM 68.0 °F - 32.0 °F 26% 30.14 in 10.0 mi Calm Calm - N/A   Clear
3:35 PM 68.0 °F - 32.0 °F 26% 30.14 in 10.0 mi WSW 5.8 mph - N/A   Clear
3:55 PM 68.0 °F - 32.0 °F 26% 30.14 in 10.0 mi SW 8.1 mph - N/A   Clear
4:15 PM 68.0 °F - 32.0 °F 26% 30.14 in 10.0 mi Calm Calm - N/A   Clear
4:35 PM 68.0 °F - 32.0 °F 26% 30.14 in 10.0 mi Calm Calm - N/A   Clear
4:55 PM 68.0 °F - 32.0 °F 26% 30.15 in 10.0 mi Calm Calm - N/A   Clear
5:15 PM 68.0 °F - 32.0 °F 26% 30.15 in 10.0 mi Calm Calm - N/A   Clear
5:35 PM 68.0 °F - 35.6 °F 30% 30.15 in 10.0 mi Calm Calm - N/A   Clear
5:55 PM 64.4 °F - 35.6 °F 34% 30.15 in 10.0 mi Calm Calm - N/A   Clear
6:15 PM 62.6 °F - 37.4 °F 39% 30.16 in 10.0 mi Calm Calm - N/A   Clear
6:35 PM 57.2 °F - 39.2 °F 51% 30.17 in 10.0 mi Calm Calm - N/A   Clear
6:55 PM 55.4 °F - 39.2 °F 54% 30.17 in 10.0 mi Calm Calm - N/A   Clear
7:15 PM 53.6 °F - 39.2 °F 58% 30.19 in 10.0 mi SSE 4.6 mph - N/A   Clear
7:35 PM 55.4 °F - 42.8 °F 63% 30.19 in 10.0 mi SSE 6.9 mph - N/A   Clear
7:55 PM 55.4 °F - 42.8 °F 63% 30.20 in 10.0 mi South 5.8 mph - N/A   Clear
8:15 PM 53.6 °F - 44.6 °F 72% 30.20 in 10.0 mi Calm Calm - N/A   Clear
8:35 PM 51.8 °F - 44.6 °F 76% 30.20 in 10.0 mi Calm Calm - N/A   Clear
8:55 PM 51.8 °F - 44.6 °F 76% 30.20 in 10.0 mi South 4.6 mph - N/A   Clear
9:15 PM 51.8 °F - 44.6 °F 76% 30.20 in 10.0 mi South 3.5 mph - N/A   Clear
9:35 PM 50.0 °F - 44.6 °F 82% 30.21 in 10.0 mi Calm Calm - N/A   Clear
9:55 PM 50.0 °F - 44.6 °F 82% 30.21 in 10.0 mi Calm Calm - N/A   Clear
10:15 PM 48.2 °F - 42.8 °F 82% 30.21 in 10.0 mi Calm Calm - N/A   Clear
10:35 PM 48.2 °F - 42.8 °F 82% 30.21 in 10.0 mi Calm Calm - N/A   Partly Cloudy
10:55 PM 46.4 °F 45.2 °F 42.8 °F 87% 30.22 in 10.0 mi West 3.5 mph - N/A   Clear
11:15 PM 46.4 °F - 41.0 °F 81% 30.22 in 10.0 mi Calm Calm - N/A   Clear
11:35 PM 44.6 °F - 41.0 °F 87% 30.22 in 10.0 mi Calm Calm - N/A   Clear
11:55 PM 44.6 °F - 41.0 °F 87% 30.22 in 10.0 mi Calm Calm - N/A   Clear